Theta_e
291 287 286 284 289 290 290 289 291 291 289 285 284 282 284 284 285 286 288 290 286 285 286 288 288 288 289 290 291 293 293 292 293 293 294 294 294 294 295 295 295 296 296 299 299 298 297 295 294 294 294 295 296 296 296 296 296 296 296 295 294 295 295 295 294 294 294 292 291 290 290 290 290 290 290 290 290 290 290 290 290 290 290 289 289 288
290 286 285 289 291 292 288 288 289 288 286 285 284 282 285 282 285 288 289 290 284 285 281 284 288 288 289 291 292 293 292 291 293 294 295 295 295 295 295 296 296 297 298 296 297 298 295 293 293 293 293 294 294 295 295 295 296 296 296 295 295 294 294 294 295 295 294 294 293 292 291 291 291 290 290 290 290 290 290 290 290 289 289 289 288 288
285 285 288 290 291 285 284 285 285 286 286 284 285 284 282 284 286 288 289 291 287 283 285 285 285 287 288 290 292 292 293 294 294 294 295 295 296 296 296 296 296 296 296 296 297 297 295 293 293 293 293 293 295 295 295 296 296 295 295 295 295 294 294 294 295 295 294 294 294 293 292 292 290 291 291 290 291 290 289 289 289 289 289 289 288 288
283 284 289 291 290 288 286 282 283 284 283 283 282 280 283 285 282 284 284 282 283 285 285 286 286 288 290 291 292 294 294 294 294 294 295 296 295 295 296 297 295 295 296 296 297 297 295 292 292 291 291 292 293 293 293 294 295 295 295 295 295 294 294 294 294 295 295 294 292 291 289 290 290 289 289 289 288 288 288 287 288 289 289 288 288 287
288 287 288 289 287 287 287 285 284 283 285 284 285 284 284 284 286 285 284 283 284 285 282 284 286 288 289 288 288 291 292 292 293 293 294 295 296 296 297 295 295 295 296 296 297 297 296 292 291 290 291 290 292 293 294 294 295 296 295 295 295 295 294 294 294 294 293 292 290 288 288 288 286 287 288 287 285 287 288 288 287 288 288 288 288 287
287 288 286 286 286 285 285 284 284 285 284 285 282 285 287 288 286 284 285 284 280 281 279 282 282 285 284 286 287 289 287 287 290 290 291 293 295 295 292 294 295 295 295 295 295 296 295 293 292 290 289 290 292 293 294 295 295 295 295 295 294 294 294 294 293 294 293 292 291 289 288 287 288 287 286 287 288 286 287 288 288 288 288 288 288 287
287 289 289 287 285 284 283 284 284 286 286 283 283 285 288 287 285 283 283 282 277 276 282 281 279 281 282 285 286 285 284 288 287 288 292 293 294 291 292 293 293 294 294 292 293 293 293 292 291 291 290 291 291 293 294 293 294 294 294 294 294 294 294 294 293 293 293 292 291 291 291 290 290 289 289 290 290 289 289 289 288 288 287 288 288 287
285 285 285 287 285 284 283 282 286 286 285 282 282 283 284 283 283 283 282 283 281 280 282 283 282 278 282 283 286 288 285 287 289 290 291 292 292 291 292 293 292 293 292 292 292 292 292 291 291 293 293 291 292 293 291 293 293 293 293 293 293 293 293 293 293 293 293 292 291 291 291 291 290 291 290 289 290 289 289 289 288 287 287 287 287 287
286 284 284 283 284 283 284 289 285 288 286 281 284 282 283 283 283 281 282 280 278 279 279 280 281 279 279 284 282 285 284 287 287 290 292 293 292 292 292 293 294 293 292 291 291 291 291 291 291 291 292 292 291 291 292 292 293 292 291 291 291 292 292 292 292 293 293 293 292 291 291 291 291 291 290 288 289 289 288 287 287 287 286 286 287 287
284 287 284 286 284 283 285 284 284 288 285 284 283 282 281 281 280 281 280 280 279 276 278 279 282 278 282 287 282 281 284 284 287 291 292 292 291 291 293 293 293 293 291 292 290 291 290 290 290 290 289 289 290 290 290 290 291 290 290 290 290 291 292 292 292 292 292 292 292 291 291 291 291 290 287 287 287 287 287 287 286 286 286 286 286 286
286 288 286 285 285 287 284 284 283 287 286 283 284 285 282 280 278 277 277 278 277 274 280 281 282 282 279 284 283 283 284 286 289 288 290 289 288 290 291 291 293 292 291 292 290 290 290 289 288 287 288 289 287 287 288 289 289 289 290 290 290 291 291 291 291 292 291 292 292 291 291 291 290 289 287 286 286 286 285 286 286 286 286 286 286 286
286 286 286 285 287 284 284 284 283 282 282 286 285 280 280 283 276 277 268 275 274 276 280 281 282 283 279 280 282 281 281 282 286 287 289 289 288 290 290 290 290 290 291 290 290 292 290 290 290 288 289 287 287 287 288 288 288 288 289 289 289 289 290 290 290 291 291 291 291 291 291 291 291 290 288 287 286 286 286 286 286 286 286 285 286 285
282 284 286 288 288 289 285 286 281 282 285 285 281 284 279 273 271 270 271 270 270 278 278 280 282 279 281 287 284 284 287 285 284 288 289 289 289 287 288 290 291 290 289 289 289 289 291 291 291 290 290 288 286 287 287 287 287 287 288 288 289 289 289 289 290 290 291 291 291 291 291 291 291 290 289 288 288 287 287 287 286 285 285 285 284 285
283 280 283 286 288 288 288 284 281 282 283 283 283 279 276 272 269 267 263 264 269 275 276 279 281 281 285 285 289 291 294 295 291 287 287 289 290 289 290 290 291 291 290 290 289 288 289 290 290 290 290 289 287 286 287 286 287 287 288 288 288 289 289 289 289 290 290 290 291 291 291 291 291 290 290 289 289 288 287 287 287 286 286 285 285 285
280 284 283 285 285 287 290 289 289 286 282 285 283 285 282 278 272 270 270 278 279 279 277 277 277 275 274 281 283 290 289 284 283 286 288 286 286 286 287 287 288 288 288 288 289 290 289 290 289 291 291 290 288 287 286 286 286 287 288 288 288 288 288 289 289 289 289 290 290 291 291 291 290 291 290 290 290 289 287 287 287 287 287 286 286 286
283 284 284 289 287 288 288 290 287 283 284 283 282 282 279 282 281 281 283 279 282 277 273 273 278 277 283 285 286 283 284 286 286 285 286 287 285 285 287 289 289 288 289 289 289 292 291 290 288 290 289 289 288 287 286 286 286 287 288 288 288 289 289 289 289 289 290 290 290 290 290 290 290 290 290 290 289 289 288 288 287 287 287 287 287 286
283 280 284 286 285 286 287 284 288 288 281 282 284 281 285 284 285 281 282 283 278 275 278 281 279 283 285 290 288 285 286 287 285 285 286 287 286 283 286 287 287 288 288 289 291 291 292 292 291 289 290 289 287 287 287 288 287 288 288 288 288 288 288 288 289 289 289 289 289 289 290 290 289 289 289 290 289 289 288 287 287 287 287 287 286 286
285 287 287 284 285 286 284 285 286 284 286 284 280 284 285 285 284 282 277 276 277 277 279 285 282 283 282 281 285 283 283 285 285 285 281 282 281 284 288 287 288 290 290 289 289 289 290 293 296 298 299 295 293 292 290 289 288 287 287 287 288 288 288 288 288 288 288 288 288 289 289 289 290 289 289 289 289 288 287 286 286 286 286 286 286 286
289 282 288 286 286 287 285 287 286 286 287 285 284 286 284 280 279 281 275 275 276 276 279 282 284 283 285 285 289 289 291 288 286 284 283 286 286 287 286 287 288 288 289 290 292 294 296 297 295 295 294 293 291 289 288 289 289 288 286 286 287 288 289 288 289 288 288 289 289 289 289 289 289 289 289 289 288 287 287 286 286 286 286 284 285 285
287 282 284 287 286 286 284 284 279 283 287 286 287 284 285 283 281 279 281 279 281 277 279 279 284 281 289 289 290 289 287 284 285 284 284 284 286 286 286 288 290 292 294 294 294 294 293 293 292 291 290 290 290 289 289 288 287 287 287 287 287 288 287 286 287 287 288 288 288 289 289 289 289 289 289 288 288 287 286 286 286 285 285 285 285 285
284 288 280 287 286 286 283 284 283 285 282 283 283 281 285 283 284 284 283 281 281 279 279 278 278 284 290 294 293 292 285 283 285 288 287 288 286 287 288 289 291 292 291 290 290 290 289 289 289 289 288 289 289 289 290 289 287 287 285 286 286 286 287 286 287 287 288 288 288 288 288 289 288 288 289 288 287 287 286 286 286 286 286 284 284 284
284 283 282 286 285 284 286 286 287 287 288 284 286 284 286 284 282 280 279 285 282 281 278 279 277 285 291 296 295 295 288 284 285 285 287 286 287 290 294 296 290 288 288 287 287 287 287 287 287 287 287 287 287 288 288 289 289 289 289 289 288 287 286 286 286 286 287 287 288 288 288 288 287 287 287 287 287 287 287 286 286 286 285 285 285 284
291 283 283 283 286 287 289 289 286 287 287 285 287 286 288 287 286 282 278 281 283 282 285 283 281 282 292 292 294 293 294 289 284 284 286 288 291 292 289 287 287 286 286 286 285 285 285 285 285 285 285 286 286 286 287 288 289 289 289 289 288 287 287 287 287 286 287 287 287 287 287 287 287 286 286 286 287 286 286 286 286 286 285 285 285 284
291 278 278 283 287 288 291 290 284 284 286 285 285 284 284 284 286 285 285 284 282 283 283 281 280 282 291 293 294 294 293 292 294 289 288 289 286 285 286 285 285 285 285 285 284 284 284 284 284 285 285 285 285 286 286 287 288 288 289 289 289 288 288 287 287 287 286 286 286 286 286 286 286 286 286 286 287 286 287 287 286 286 286 286 285 284
285 285 283 281 282 283 285 286 284 283 284 283 283 285 286 287 285 285 283 282 279 281 283 280 276 282 290 291 292 292 293 293 294 291 285 283 284 284 284 284 284 284 284 283 283 283 283 283 283 283 284 284 285 285 286 286 287 287 288 289 289 289 289 288 287 286 286 286 286 285 285 286 286 286 286 286 287 287 287 287 287 286 286 285 285 285
286 286 283 278 277 275 275 276 277 277 281 282 283 285 287 286 285 284 281 283 279 282 284 280 280 286 291 292 292 293 292 290 288 284 284 284 282 283 282 282 283 283 282 283 283 283 282 283 283 283 283 284 284 285 285 286 286 287 287 288 288 288 289 289 289 287 286 286 286 286 285 285 285 285 286 286 287 287 287 287 287 286 285 285 285 285
284 283 285 285 283 281 283 285 287 286 284 283 283 283 284 285 285 286 285 282 279 283 282 284 285 285 287 289 288 283 283 283 283 283 281 281 281 282 282 281 282 282 282 282 282 282 282 282 282 282 283 283 284 284 285 285 286 286 286 287 287 288 288 288 288 288 287 286 285 286 285 285 285 286 286 287 287 287 287 287 287 286 286 285 285 284
282 282 285 285 285 285 287 286 287 287 284 286 285 285 288 287 287 285 282 280 286 282 278 286 287 285 285 288 280 280 279 280 282 282 280 280 280 280 280 280 282 281 281 281 281 281 281 281 282 282 282 283 283 284 284 285 285 285 285 285 286 286 287 288 287 287 287 287 286 286 286 286 286 286 286 286 286 286 287 287 287 287 286 285 284 284
283 282 285 286 284 286 286 286 287 286 286 286 286 286 285 287 286 283 284 286 286 281 279 285 286 284 286 282 278 277 279 278 280 281 280 280 280 280 280 279 279 280 280 280 281 281 281 281 281 281 282 282 283 283 283 284 285 285 285 285 285 285 286 286 286 286 286 286 286 287 287 287 286 286 286 286 286 286 285 286 286 286 286 285 284 284
284 280 284 284 282 282 283 284 285 284 283 284 284 285 285 285 285 285 285 286 286 284 285 285 285 285 282 278 280 279 280 280 280 282 282 280 280 280 280 279 279 279 279 280 280 281 281 281 281 281 282 282 282 283 283 284 284 284 284 284 284 285 286 286 285 286 286 286 286 286 287 287 287 286 285 285 285 285 285 285 285 285 285 284 284 283
285 278 284 281 279 279 282 283 283 283 283 281 283 283 283 284 284 285 285 285 285 284 285 285 284 284 279 281 278 282 279 281 281 279 281 279 280 280 280 279 279 279 279 280 280 281 281 281 281 281 281 282 282 283 283 283 284 284 284 284 284 284 285 285 284 285 285 285 285 285 286 286 286 286 286 286 285 285 285 285 285 284 284 284 283 283
283 277 283 280 276 275 280 280 280 281 280 279 279 280 280 280 278 280 280 282 281 280 282 282 281 281 277 280 280 280 279 278 278 279 279 279 279 280 280 280 280 280 281 281 281 281 281 282 281 281 281 282 283 283 283 283 283 283 283 283 283 284 284 284 284 284 284 284 285 285 285 285 284 285 285 285 285 285 285 284 284 284 284 283 283 282
280 279 276 276 273 273 278 279 278 278 276 273 274 277 279 279 280 281 282 282 279 280 278 278 277 276 277 280 277 277 278 278 278 279 279 279 279 279 280 280 281 281 282 282 282 282 282 282 282 281 282 283 284 284 284 284 283 283 283 283 283 283 283 283 283 283 284 284 284 284 284 284 283 283 284 284 285 284 283 283 283 283 282 282 283 283
278 278 276 279 272 272 277 276 276 272 266 267 278 280 283 279 280 279 277 277 279 280 277 278 277 279 278 278 276 277 277 278 279 280 281 281 279 279 279 280 281 282 282 283 283 283 283 283 283 283 283 283 284 284 285 284 284 284 284 284 284 283 284 283 283 283 283 283 283 283 283 283 283 282 283 283 283 283 282 282 282 283 283 282 282 282
276 276 273 272 271 269 272 270 269 264 265 276 277 279 279 279 279 277 276 278 278 280 278 277 279 277 279 279 279 279 279 281 281 280 280 282 280 281 281 281 282 282 282 282 283 283 283 283 283 283 283 283 283 284 284 284 285 285 285 285 284 284 284 284 284 284 283 282 282 282 282 282 282 282 282 282 282 281 281 281 281 282 282 282 282 282
274 273 268 267 267 267 267 267 262 261 276 277 278 276 278 277 277 276 274 276 276 277 278 274 278 279 279 280 280 281 281 280 281 281 281 282 281 281 281 281 282 282 282 283 283 283 283 283 282 282 282 282 282 283 284 284 285 284 284 284 284 284 284 284 284 284 283 283 282 282 282 281 281 281 281 282 281 281 281 281 282 282 283 282 282 282
278 276 274 270 276 267 269 268 268 274 274 275 275 275 275 272 273 272 268 275 274 274 278 277 278 279 279 280 280 280 280 280 278 277 281 280 281 283 282 282 283 282 283 283 283 283 284 283 283 283 283 283 283 283 283 284 284 284 283 283 283 283 283 283 283 283 283 283 283 282 281 281 280 280 280 280 280 280 280 281 281 281 281 281 281 281
280 275 277 273 271 277 269 269 269 269 265 269 271 274 277 276 277 278 276 271 275 270 274 277 277 278 278 279 279 279 279 276 272 274 279 280 282 282 282 283 283 283 283 283 282 282 282 282 282 282 282 282 282 283 283 283 283 283 283 282 282 282 282 282 282 283 283 282 283 282 282 282 280 280 280 279 279 279 280 280 280 280 280 280 279 279
279 280 279 275 272 275 272 269 268 267 269 277 275 278 278 277 278 277 275 268 277 271 274 278 277 278 278 277 278 278 276 271 272 275 278 279 280 281 281 282 282 283 283 283 282 282 282 282 282 282 282 282 282 283 283 283 283 282 281 281 281 281 281 281 281 282 282 283 283 282 282 282 281 281 280 280 280 279 278 279 279 279 278 278 278 278
269 271 274 271 270 268 266 266 264 268 263 271 271 271 275 276 277 274 265 266 271 270 274 278 277 277 278 278 278 277 275 270 272 275 277 278 279 279 281 281 282 282 283 283 282 282 282 282 282 281 281 281 282 283 283 282 282 281 281 280 280 280 280 281 281 282 283 283 282 282 282 282 282 281 281 280 280 279 278 277 276 276 277 277 276 276
262 262 262 265 264 267 270 264 263 262 270 269 270 272 273 275 274 264 262 267 271 272 273 275 275 276 277 276 277 274 277 279 278 279 279 278 277 278 280 281 282 282 282 281 281 283 281 281 281 280 280 281 282 282 282 282 281 280 280 280 279 279 280 281 282 282 282 282 282 282 282 282 282 281 280 280 279 279 278 277 277 276 275 275 274 273
263 262 260 263 262 265 264 265 265 268 270 274 269 272 276 272 261 264 271 274 273 275 273 275 275 276 276 276 276 277 279 280 280 280 279 279 279 279 279 280 280 279 279 279 279 280 279 279 279 279 280 281 281 281 281 280 279 279 279 278 278 279 280 281 281 281 281 281 282 282 282 282 282 281 280 279 278 278 278 277 275 275 275 274 273 273
264 263 257 261 263 263 264 263 263 261 266 270 273 273 274 267 267 274 275 277 277 276 275 274 274 275 276 275 277 278 279 279 279 279 280 279 279 278 278 278 278 277 276 276 276 276 277 276 277 277 278 279 279 280 280 279 278 278 278 277 278 279 279 280 280 280 280 281 281 281 281 281 281 281 280 279 279 278 277 277 274 274 274 274 273 273
271 267 263 266 267 265 262 261 260 264 269 274 274 267 268 275 277 277 277 275 277 277 273 274 274 275 275 275 276 277 277 278 278 278 278 278 278 278 277 275 274 275 275 275 275 275 274 274 275 276 276 276 276 276 277 277 276 277 276 276 278 278 278 278 278 279 279 279 280 280 280 280 281 280 279 279 278 277 277 276 275 274 273 273 273 273
272 270 271 268 270 267 261 267 272 272 273 275 275 276 277 278 279 278 277 276 275 276 274 273 275 276 276 276 276 276 276 277 278 278 277 277 276 275 274 274 274 274 275 275 275 275 274 274 273 274 274 274 274 274 275 275 274 275 274 275 277 277 277 276 277 277 277 278 278 278 279 280 280 280 279 278 278 277 277 276 275 273 273 273 273 273
273 273 272 273 270 275 275 275 277 275 275 276 278 278 278 278 278 278 276 275 274 275 275 275 275 275 275 275 275 275 276 276 275 275 274 273 273 273 274 274 274 274 274 273 273 273 273 273 272 271 271 272 273 273 273 273 273 272 273 275 275 275 275 275 274 275 276 276 276 277 277 277 278 278 279 278 277 277 277 277 276 274 274 273 272 273
275 275 272 271 273 270 266 275 274 275 276 276 277 278 278 277 276 277 275 275 275 276 275 275 273 273 273 272 272 272 271 271 271 271 272 272 272 272 272 272 272 272 272 271 272 272 271 271 270 270 270 270 271 272 271 271 271 272 273 273 273 273 273 273 273 273 273 272 273 273 274 273 274 275 276 277 277 276 276 276 276 275 274 273 273 273
270 277 272 272 272 270 270 274 275 276 276 277 277 276 277 278 278 275 275 274 273 272 272 271 271 271 271 270 270 269 270 270 270 270 270 271 271 271 271 271 271 271 271 271 271 270 269 269 269 269 269 269 270 271 270 270 270 271 271 271 271 270 270 271 271 270 269 269 269 270 270 271 272 273 274 275 276 276 276 275 275 275 274 274 273 273
274 274 262 267 270 274 276 276 276 276 276 277 278 278 277 275 273 272 271 271 270 270 270 270 270 270 270 269 270 269 268 269 269 269 269 269 269 269 269 270 270 269 269 269 269 269 268 268 268 268 268 268 269 269 269 269 269 269 269 270 269 268 267 267 268 268 267 267 267 267 268 269 270 271 272 273 275 276 276 276 276 275 275 276 276 275
272 271 275 272 269 270 270 273 276 269 269 274 276 274 271 270 270 270 269 269 269 268 268 268 268 269 269 269 269 268 266 267 268 268 267 268 268 268 268 268 268 268 268 268 268 268 268 267 267 267 267 267 268 268 267 267 267 268 268 267 267 266 265 265 265 264 264 265 265 266 266 267 268 270 271 272 273 274 275 276 279 278 276 275 278 279
273 274 274 271 270 269 275 276 275 275 274 276 274 269 268 268 268 267 267 267 267 268 268 267 266 266 267 267 268 267 266 266 266 267 266 265 266 266 266 266 266 266 266 266 266 266 266 266 266 266 265 266 266 266 266 265 265 265 266 265 265 264 263 263 262 262 263 263 264 265 266 266 267 267 268 270 271 272 273 273 275 280 281 280 279 279
Wind_Speed
2 7 8 9 13 16 15 14 17 17 8 1 0 4 11 12 11 8 12 12 1 6 10 16 19 16 16 15 16 16 13 12 19 21 20 16 14 14 16 17 17 17 20 14 9 11 7 6 7 7 8 10 10 11 11 13 14 15 16 14 16 14 13 13 12 12 13 14 11 8 11 14 12 12 11 10 11 11 11 12 12 11 10 10 10 10
2 8 9 14 20 17 6 8 10 7 2 5 6 6 12 5 15 11 10 8 2 1 3 6 17 19 16 14 16 15 13 17 18 23 24 22 16 14 16 19 20 18 8 7 10 12 6 5 6 7 7 7 9 11 11 14 16 15 13 14 14 10 12 14 15 14 14 15 16 17 18 16 14 13 13 13 12 13 11 11 10 10 10 11 11 10
6 11 14 19 9 6 2 4 4 7 8 7 9 7 8 10 11 12 14 12 5 2 12 7 16 15 12 15 17 17 20 19 15 16 21 21 21 17 16 18 16 11 14 10 12 10 6 6 6 6 6 7 11 9 13 13 10 11 13 14 12 12 14 14 14 13 15 13 12 11 7 10 7 7 8 7 8 7 9 9 10 9 10 11 10 11
6 6 18 14 1 4 1 4 4 2 4 7 7 4 13 3 2 10 2 2 1 1 10 11 21 20 12 17 22 22 20 15 12 13 20 21 17 19 24 14 6 11 14 16 13 12 7 5 4 2 4 5 5 6 6 8 12 11 13 13 13 13 14 13 14 15 11 8 6 4 3 5 6 6 5 5 5 7 6 8 9 10 10 11 11 11
16 4 4 7 5 5 8 3 3 2 11 7 11 8 8 9 13 10 6 6 7 5 3 9 15 16 10 10 7 13 10 10 15 14 15 19 18 22 15 11 11 12 16 15 16 13 10 6 6 5 5 4 6 8 9 9 11 11 15 14 14 13 14 13 13 13 9 8 7 6 5 5 5 4 6 6 6 8 8 8 10 11 10 12 11 12
11 5 2 3 5 5 5 6 6 7 13 8 5 10 18 16 10 7 9 7 6 8 5 5 12 14 1 4 8 7 1 5 8 8 15 21 23 15 6 13 10 8 10 11 12 14 9 6 6 5 4 6 8 10 11 10 12 10 10 11 11 10 10 12 14 14 12 13 13 12 11 10 10 9 10 14 17 11 13 16 11 11 14 13 13 12
6 2 5 6 5 5 5 6 6 9 14 7 8 14 16 11 8 7 11 4 5 2 2 2 2 20 5 4 7 7 4 11 5 7 19 20 16 6 8 9 8 10 8 4 7 6 7 6 6 5 6 7 8 11 7 6 7 8 8 9 12 12 10 11 11 14 12 12 13 17 17 16 16 17 15 13 10 14 13 10 13 13 11 12 13 12
2 2 3 1 4 4 4 5 9 12 6 9 2 6 7 6 7 7 4 6 8 1 3 2 4 5 24 1 7 7 3 8 10 14 15 16 8 7 9 9 10 9 6 6 5 4 3 5 5 8 7 6 9 7 5 7 6 8 9 8 11 10 10 11 12 15 15 15 15 15 15 14 14 16 15 12 13 11 10 11 12 11 11 12 12 12
6 2 3 3 2 4 7 13 2 12 7 5 1 6 4 7 6 3 5 5 2 4 9 2 3 4 10 5 3 5 4 9 12 16 16 14 8 6 9 11 11 8 4 3 3 4 5 5 6 5 7 6 5 5 6 7 6 6 5 6 6 9 9 10 13 15 16 15 15 16 15 15 15 13 8 6 6 9 9 11 9 10 10 11 11 12
2 2 6 8 7 8 8 1 9 11 6 4 4 5 5 5 5 3 4 3 1 1 11 7 6 5 18 11 4 4 0 6 10 16 16 8 5 6 8 9 8 7 4 2 2 2 5 5 6 6 6 6 6 4 4 4 3 4 5 6 8 10 8 8 12 14 16 16 14 14 16 18 14 9 7 8 9 9 9 11 10 10 10 10 10 11
2 3 6 5 8 6 4 0 4 9 4 3 3 2 3 5 3 3 5 2 1 5 10 14 11 7 12 5 8 8 8 8 7 4 7 8 5 7 5 6 7 7 4 5 4 4 5 5 5 5 6 7 4 3 2 4 4 4 5 6 9 10 8 8 11 12 15 14 14 16 17 18 16 13 10 10 10 9 9 12 12 11 11 10 12 11
2 1 1 4 3 4 4 3 2 1 1 2 1 2 3 4 5 2 3 2 2 11 4 13 15 14 13 3 5 5 2 3 4 5 6 8 8 6 5 5 5 2 2 4 6 7 6 6 6 5 6 5 4 2 2 3 3 4 5 6 8 7 8 8 9 10 12 12 14 13 14 15 14 13 12 15 14 14 15 14 13 11 9 11 10 10
3 9 3 0 4 9 3 1 2 3 1 3 3 0 1 6 6 3 2 1 5 11 2 4 7 3 20 10 3 6 8 6 7 8 7 5 8 6 5 6 5 5 5 3 5 5 5 5 5 6 7 6 4 3 4 4 4 4 5 7 8 9 8 10 11 13 14 14 16 16 14 13 12 13 14 14 14 13 14 13 13 13 13 11 11 13
8 1 1 5 1 5 7 7 1 1 6 7 6 5 4 3 3 5 5 2 6 6 4 5 2 10 7 5 10 16 18 16 8 8 8 7 9 6 6 7 7 7 5 5 5 4 4 6 5 6 6 5 4 3 4 4 4 4 5 6 9 10 9 9 10 12 13 16 15 13 13 13 11 13 14 13 14 13 12 12 14 15 15 15 17 16
8 9 5 5 4 5 11 12 15 5 8 12 2 11 10 8 4 5 4 10 9 6 2 3 4 9 3 6 2 11 5 3 3 5 6 5 5 5 6 6 7 5 5 5 6 5 3 5 5 6 5 5 4 3 4 4 4 4 6 7 9 9 9 11 12 11 15 15 13 11 10 10 11 12 12 12 11 11 13 12 13 13 12 13 14 14
9 11 6 7 1 7 12 7 3 5 4 3 3 3 2 9 5 10 5 4 8 3 2 2 8 3 6 1 4 5 5 5 5 2 2 3 3 4 5 7 6 5 4 5 6 9 7 4 5 4 5 4 4 3 2 4 4 5 8 6 8 10 8 10 11 13 14 13 10 10 12 13 11 10 9 9 10 11 11 11 13 13 14 13 12 11
0 6 1 2 3 6 5 2 3 4 6 3 5 6 9 3 4 4 5 5 1 1 15 4 7 10 7 12 5 4 2 4 4 4 4 6 5 3 4 7 5 4 6 6 6 6 8 5 1 5 6 6 4 1 2 4 4 6 5 5 7 7 6 9 11 12 9 9 10 12 12 10 11 13 14 13 12 11 9 9 10 10 12 10 10 12
8 12 1 5 4 4 1 1 1 2 3 7 2 8 1 1 2 3 6 2 4 9 10 7 16 11 4 14 2 4 5 4 5 1 3 4 3 4 7 3 4 5 6 6 6 8 8 6 8 13 16 20 20 16 10 8 5 3 4 5 6 6 10 11 9 10 9 10 11 10 12 13 13 12 12 10 10 9 8 9 10 9 9 13 11 10
1 8 7 4 4 1 1 1 5 0 0 4 5 1 2 5 4 2 4 6 7 11 9 7 13 16 9 17 10 12 17 9 4 4 4 3 2 6 5 5 4 5 6 5 5 5 7 15 19 19 19 16 13 9 8 9 9 8 5 4 4 8 8 7 5 5 6 8 8 8 10 11 12 11 11 9 7 5 9 11 10 11 11 5 8 10
1 5 5 2 2 1 2 3 5 3 1 2 1 2 0 2 3 2 6 2 0 11 7 11 9 13 8 10 9 9 7 5 6 5 4 6 7 4 5 5 6 9 8 9 14 17 18 18 18 16 15 16 12 10 10 9 7 7 7 6 6 7 6 5 5 5 7 7 8 9 8 10 11 11 11 10 8 9 10 10 9 10 9 11 7 9
1 1 10 1 1 2 4 4 7 9 7 1 1 4 1 2 2 1 2 2 6 8 8 9 10 7 12 13 14 13 3 4 4 5 5 7 5 6 6 6 6 10 14 17 17 16 17 16 16 15 13 13 11 10 11 10 7 5 4 5 5 7 6 5 5 5 7 6 9 9 11 11 9 12 10 9 10 11 11 9 10 10 10 6 12 11
1 2 10 9 10 9 11 5 8 7 9 7 10 9 11 7 7 10 12 3 4 6 8 8 16 8 10 11 17 14 1 2 3 3 6 6 7 8 9 13 19 17 17 16 14 14 14 15 16 16 16 13 14 16 17 14 14 15 14 11 9 7 6 6 6 6 7 6 8 9 11 10 8 8 7 10 11 12 11 11 11 10 8 12 11 11
4 1 1 9 11 15 7 4 3 5 3 4 7 8 8 8 6 9 14 9 5 9 11 15 15 12 1 4 7 6 6 2 2 1 3 7 11 15 17 16 15 14 12 12 12 12 12 11 11 11 13 14 14 14 15 15 15 15 15 14 12 10 10 7 8 6 7 8 9 11 10 8 9 7 8 11 11 12 13 12 11 10 13 13 11 11
6 1 2 7 7 10 15 5 2 2 4 0 3 3 3 9 11 13 13 5 9 9 11 9 13 5 2 4 9 8 8 9 7 0 2 10 16 15 15 16 15 15 14 12 12 11 11 10 11 14 17 17 16 16 16 14 14 14 14 14 13 13 13 11 9 8 7 8 10 9 8 9 8 8 10 11 12 13 14 13 12 11 13 13 10 12
1 3 3 7 6 4 6 6 2 3 2 1 4 5 6 6 4 5 3 1 6 7 12 13 19 6 1 3 6 8 10 9 11 18 19 14 10 10 11 11 11 12 14 15 14 13 13 16 17 15 13 13 13 13 14 15 14 14 14 14 15 13 12 12 10 8 8 8 10 9 9 10 8 10 11 13 12 15 14 12 12 10 12 10 11 12
3 4 3 7 9 11 12 11 9 3 4 2 2 4 5 7 12 7 10 8 14 6 13 13 13 9 8 5 7 10 10 14 14 12 11 12 10 11 10 10 11 11 12 14 16 17 16 11 11 13 14 13 14 13 13 12 12 13 13 14 13 14 14 14 13 11 9 8 9 9 9 10 8 10 12 13 14 15 14 12 11 11 9 11 13 11
2 2 6 11 14 16 14 13 4 1 1 3 4 3 5 5 4 8 9 11 13 11 14 13 14 15 13 14 7 14 11 12 14 14 12 12 11 8 8 10 10 10 9 10 9 10 13 16 17 14 14 12 11 12 12 12 13 12 12 13 14 14 13 13 13 14 12 10 8 9 9 9 10 11 12 13 14 12 11 12 12 12 13 12 13 14
1 3 6 10 12 12 13 15 14 12 14 11 12 13 12 12 12 14 12 14 9 12 19 6 13 15 11 7 9 11 12 10 10 10 10 8 8 7 6 6 8 11 12 11 12 12 11 10 12 13 14 14 14 14 13 11 11 11 11 12 11 11 12 12 13 13 13 12 10 9 10 9 10 10 11 11 11 11 12 11 12 13 13 11 14 14
1 5 2 6 11 8 7 9 9 11 9 10 10 11 12 13 14 16 18 17 14 15 19 13 15 19 15 4 6 7 8 7 7 7 8 7 5 6 6 8 9 9 10 11 11 11 10 11 10 11 11 11 11 13 13 13 13 13 13 12 12 11 12 12 12 13 13 13 13 13 12 11 8 7 9 10 11 11 11 11 11 11 10 11 13 12
2 5 6 4 9 6 9 9 9 11 12 11 10 9 11 11 16 16 18 13 14 18 18 19 17 20 4 2 4 4 2 5 6 6 4 9 10 9 8 8 8 7 7 8 9 10 10 10 10 10 11 12 12 13 13 12 13 13 13 14 13 13 13 12 12 13 14 14 14 13 14 13 12 10 8 8 10 11 11 10 10 10 11 12 13 12
1 5 12 5 8 7 8 9 10 10 9 12 13 12 15 15 18 16 14 16 19 21 15 17 13 10 5 3 1 2 1 1 2 5 3 4 6 7 8 8 7 7 5 5 5 7 8 10 10 10 12 12 13 12 11 9 10 11 12 13 14 13 11 10 11 11 11 13 12 13 13 13 13 12 12 10 9 8 9 10 10 10 11 11 10 12
2 4 4 6 9 10 9 12 13 13 14 15 16 17 21 21 21 15 15 14 15 18 15 15 14 7 2 1 1 3 3 8 5 7 6 3 6 5 7 8 6 8 7 6 6 6 7 8 10 11 12 12 11 11 11 11 9 9 10 10 11 11 11 11 11 11 11 11 12 12 13 12 13 13 13 12 11 10 9 8 8 9 10 9 10 10
2 4 6 9 12 13 12 15 14 13 12 14 14 19 22 18 18 18 19 7 4 1 6 11 4 3 4 3 3 5 4 8 4 6 6 3 2 3 5 6 6 8 7 8 8 7 7 8 8 8 10 10 11 11 11 10 9 9 9 9 8 8 8 9 9 9 10 11 12 13 12 12 12 12 12 12 12 11 8 8 8 8 8 10 10 8
5 8 10 6 10 12 15 16 4 6 12 15 8 2 2 13 11 12 4 4 4 3 1 2 3 1 0 2 4 6 5 5 6 7 6 5 3 4 4 4 6 6 6 6 7 7 7 7 7 7 8 9 10 9 9 7 7 7 7 8 8 7 8 8 8 7 9 10 10 11 12 12 12 12 11 10 11 11 10 8 9 9 7 6 5 8
13 10 10 3 7 10 6 7 10 15 14 4 2 2 3 5 6 6 5 4 3 4 5 3 4 1 2 2 6 6 8 7 5 7 8 5 3 3 6 6 6 7 8 8 7 7 7 9 9 9 8 9 9 9 9 9 7 8 8 8 9 9 9 9 9 8 8 9 10 10 11 12 12 13 12 11 9 9 9 9 9 8 7 6 8 10
10 11 2 2 3 3 1 3 6 6 6 2 2 1 1 5 7 8 2 4 1 4 4 2 5 6 6 6 6 8 7 8 4 7 9 7 4 4 5 6 7 7 8 7 8 8 10 9 10 9 9 7 7 9 8 9 8 8 10 9 9 10 8 8 8 9 9 9 10 10 10 11 12 13 13 12 10 8 8 9 9 10 8 7 7 6
12 5 3 7 6 9 6 9 14 7 15 8 5 1 2 0 1 1 2 3 8 4 4 3 5 6 6 8 8 7 7 4 6 8 4 8 6 5 7 8 7 8 8 8 8 9 9 10 9 9 8 8 8 8 9 8 7 8 9 9 9 8 9 8 8 9 10 10 10 10 10 10 11 12 13 12 12 12 10 8 9 8 6 7 8 8
10 11 7 8 6 10 8 8 8 6 9 3 1 6 1 4 2 3 3 4 5 3 4 5 4 6 7 7 7 7 2 4 7 7 4 8 6 6 7 8 7 7 8 9 7 7 8 8 8 8 8 9 9 9 8 7 7 8 9 9 9 9 9 8 9 8 8 10 10 10 10 10 9 11 11 11 12 12 12 9 7 7 5 8 8 9
7 10 9 11 5 5 9 10 8 8 5 4 8 6 5 2 2 2 1 7 5 3 5 8 7 6 7 8 9 3 0 4 8 8 6 6 8 7 7 8 8 8 9 9 9 10 9 9 9 9 8 9 10 10 8 8 8 9 10 10 10 9 10 10 9 8 9 9 9 8 9 9 9 10 11 11 11 10 11 11 9 8 5 7 7 8
4 4 8 10 7 6 3 6 8 3 2 2 5 2 4 1 2 2 11 7 4 5 4 6 8 7 6 8 7 5 6 8 10 8 5 7 8 7 6 8 9 10 10 10 8 8 9 10 9 9 10 10 11 9 9 7 7 8 10 10 9 10 11 10 9 8 8 8 8 8 8 8 9 10 10 12 11 10 9 8 8 7 7 7 6 7
2 4 2 8 6 8 11 8 4 5 3 3 4 6 4 2 1 5 14 6 3 3 3 5 7 7 6 5 5 6 9 12 12 10 9 8 6 5 6 7 10 10 10 9 9 9 9 9 8 10 11 10 9 8 7 6 8 10 10 10 10 12 11 10 9 9 9 9 9 8 9 8 7 10 11 9 10 9 8 6 7 7 6 8 6 5
3 1 7 0 4 9 7 9 10 6 5 5 3 4 1 2 1 9 2 0 3 7 5 5 6 8 6 8 7 9 11 12 12 10 9 11 12 11 7 8 8 7 7 6 8 8 8 8 8 10 11 10 9 8 6 7 10 11 11 10 12 13 11 10 10 10 10 11 10 9 9 9 9 8 8 9 8 9 9 6 5 6 6 6 6 7
5 1 4 5 3 1 0 4 5 7 2 5 1 5 1 3 7 3 7 12 9 11 8 6 6 7 6 8 9 11 11 11 11 13 13 12 12 12 10 7 7 8 8 9 9 8 7 8 10 11 11 10 8 6 7 8 11 12 11 12 14 12 10 10 10 11 11 11 11 10 10 10 10 10 7 9 9 9 10 8 5 6 5 6 6 7
3 8 3 5 4 8 5 6 5 6 3 3 2 2 2 5 7 9 10 13 11 9 5 5 5 7 7 7 9 10 11 12 11 11 12 11 10 9 7 6 6 6 8 8 9 10 7 8 9 11 11 10 8 7 8 9 12 12 13 15 14 10 10 10 11 12 13 13 11 11 11 10 10 9 8 9 9 8 9 9 7 6 6 6 7 7
5 9 7 10 3 4 5 6 7 4 1 3 3 7 9 12 12 12 10 8 9 10 4 4 8 9 7 9 8 9 10 10 12 10 8 8 8 8 9 9 9 10 11 11 12 12 9 10 11 12 12 12 11 10 10 9 11 13 15 15 10 10 11 11 12 14 15 14 13 13 12 11 10 10 10 10 9 10 9 10 7 7 6 6 7 7
4 2 1 4 7 6 7 10 14 7 5 11 11 10 12 13 11 10 8 8 5 7 6 8 8 7 8 6 6 6 6 7 8 9 9 9 10 12 12 13 13 12 11 11 12 12 11 11 11 12 15 16 14 12 10 10 8 14 16 13 10 10 10 12 14 15 14 14 14 14 13 14 14 13 12 12 9 9 9 10 8 8 7 6 8 8
10 8 4 7 10 9 11 11 6 8 10 10 11 11 10 7 9 8 8 6 7 6 7 5 4 5 4 5 4 5 8 8 9 10 10 11 12 13 13 14 14 14 14 15 15 13 12 11 13 15 16 18 16 13 10 10 10 11 12 13 11 10 10 13 14 14 14 14 14 14 15 16 14 14 13 12 10 9 9 8 8 9 9 8 9 9
9 6 8 11 14 11 16 15 12 8 10 10 9 10 12 14 10 5 4 3 4 4 3 4 6 5 6 7 6 7 10 10 9 10 10 11 13 13 15 14 15 15 16 15 15 13 12 13 14 15 16 17 17 14 12 12 13 13 13 12 11 9 9 12 13 14 14 15 14 13 14 15 19 19 14 13 10 10 9 9 9 10 11 11 11 10
5 3 3 3 6 12 15 14 12 13 12 13 14 13 9 4 4 4 5 6 7 8 9 8 3 4 6 6 6 7 9 12 11 10 11 13 14 15 15 15 16 16 17 17 16 14 14 14 16 16 16 18 16 15 14 14 14 14 14 13 10 8 10 13 14 14 15 16 14 15 15 14 14 14 14 14 12 11 11 11 10 11 13 13 11 12
4 11 12 5 10 13 13 13 9 8 9 7 8 2 4 5 4 4 5 6 7 7 8 10 12 7 4 4 6 7 8 11 13 12 12 14 15 17 17 16 15 16 18 16 15 15 17 16 16 16 17 18 15 15 14 15 15 13 12 9 9 9 12 14 14 15 17 16 15 15 14 13 13 13 13 13 13 13 12 14 19 15 13 13 15 22
9 12 7 10 10 13 13 12 5 7 7 11 3 7 5 6 5 6 5 5 5 4 5 7 10 13 12 8 3 6 8 11 14 13 14 14 16 16 16 17 16 17 17 16 16 17 16 17 16 17 17 17 14 15 16 16 15 15 12 10 8 10 13 14 15 16 18 17 16 16 14 13 14 14 13 13 14 13 13 13 12 20 26 25 19 17
Wind_Direction
134 163 178 189 217 224 225 190 210 226 233 329 164 234 253 259 273 264 269 268 61 309 239 261 264 261 263 263 266 267 274 276 281 280 275 269 261 259 264 262 258 256 252 268 282 275 257 233 219 215 204 211 210 210 200 199 201 198 197 187 201 192 183 181 178 181 180 183 183 187 197 205 195 193 190 191 194 194 198 191 190 184 183 177 174 173
101 205 216 210 218 226 216 201 228 264 312 245 264 260 264 238 270 255 282 282 77 258 261 220 272 268 266 268 265 268 268 259 255 271 276 275 268 260 261 265 263 260 289 286 277 270 265 242 225 211 208 197 204 219 203 205 204 201 195 197 200 177 189 190 189 186 188 191 188 187 196 196 190 185 187 198 195 199 194 191 188 183 181 177 177 172
206 211 220 225 221 59 102 190 207 209 237 251 239 262 288 262 267 277 265 282 286 180 277 266 268 266 263 257 259 253 250 250 239 244 263 271 275 273 267 259 270 295 281 280 265 274 264 240 235 215 216 215 215 212 206 211 200 199 198 205 190 189 188 194 190 186 197 193 196 197 195 189 189 203 208 206 198 186 188 186 183 182 182 177 176 175
263 255 240 240 243 279 320 90 125 189 244 235 251 268 247 277 324 295 220 360 311 211 299 299 292 286 261 248 247 247 249 251 253 241 252 257 263 267 261 267 305 284 288 284 284 281 278 240 269 292 271 245 236 233 221 210 205 203 206 202 194 194 193 191 193 195 193 186 176 170 109 156 154 175 164 168 159 179 166 182 182 190 182 178 182 174
224 224 241 224 206 201 238 196 155 208 260 208 220 236 277 255 241 239 275 333 310 280 253 308 289 279 219 241 246 265 247 255 260 250 255 267 259 249 269 297 254 264 270 280 289 290 290 348 334 284 263 261 238 232 224 210 207 206 207 201 196 194 193 192 189 186 168 149 142 128 88 106 92 86 152 162 191 183 181 180 193 192 178 183 181 179
266 265 111 111 188 195 212 256 219 201 263 250 213 196 235 248 270 263 281 349 356 313 351 35 330 304 210 177 227 268 20 225 248 241 251 251 252 260 272 261 274 244 259 268 278 288 353 357 332 309 258 234 234 234 227 214 216 210 207 198 197 194 191 191 186 179 169 175 171 164 164 170 181 188 182 197 198 176 188 199 186 184 190 184 184 182
227 246 184 205 173 190 192 222 231 178 245 279 264 207 230 243 244 260 277 7 290 230 289 46 116 293 160 228 244 247 232 245 266 213 240 242 250 276 264 273 271 278 281 273 281 351 360 334 310 287 253 237 241 244 230 223 223 219 213 200 196 194 192 188 183 176 176 179 183 187 190 189 188 196 208 204 188 190 195 184 186 191 185 188 184 184
176 296 196 197 166 155 164 253 234 179 228 265 241 185 210 219 222 236 222 193 248 270 280 163 147 247 301 318 220 220 193 254 258 255 257 263 282 290 279 273 281 279 282 304 335 7 320 284 275 280 276 248 240 246 219 222 217 212 210 198 197 195 191 185 178 181 185 186 188 190 196 197 201 206 206 186 192 188 185 187 187 179 186 187 188 183
160 207 165 145 147 149 199 226 110 160 172 223 250 151 182 204 209 157 170 201 223 26 304 188 93 290 255 271 13 132 137 245 248 255 260 263 262 261 271 281 280 285 348 357 11 339 294 286 287 279 286 281 275 261 229 228 219 210 203 200 198 204 195 189 183 185 191 192 191 193 195 201 212 208 195 169 171 182 181 187 183 183 182 184 191 188
294 201 207 163 142 210 222 188 166 165 201 263 114 78 73 70 64 133 128 135 323 26 264 171 176 225 278 284 108 3 142 250 243 246 251 265 293 275 277 284 294 313 1 79 99 277 280 287 294 290 289 295 273 260 249 253 219 200 189 192 190 203 197 193 193 193 194 195 190 196 202 206 206 191 168 158 173 179 174 187 184 185 181 187 188 192
233 358 160 122 197 214 159 173 172 192 180 119 87 67 3 34 37 23 64 94 52 259 255 170 196 164 274 293 174 138 199 202 239 276 303 312 295 272 263 273 287 306 333 330 299 273 277 288 278 294 301 289 306 289 250 235 206 191 186 194 201 202 192 194 199 197 200 198 198 204 203 204 201 189 171 168 180 172 173 189 187 185 189 184 193 190
254 85 176 253 80 86 108 103 46 57 126 145 219 132 17 300 16 32 338 32 204 272 240 184 179 182 223 279 286 235 270 224 187 239 263 289 280 271 277 272 265 289 301 301 318 320 321 322 318 327 311 308 305 331 263 237 206 195 194 191 205 204 197 189 193 200 207 205 210 214 209 208 204 186 186 189 186 183 186 187 186 185 180 192 189 187
266 211 225 255 221 156 162 161 312 33 56 134 99 47 260 272 28 312 25 308 183 233 286 203 163 346 245 245 259 281 269 271 221 216 241 237 266 272 272 277 303 311 302 302 302 315 313 315 320 326 324 327 314 265 247 232 213 204 198 196 201 211 196 196 191 199 203 205 211 210 208 210 201 198 196 198 194 188 189 187 185 181 192 184 185 195
278 270 145 233 348 213 133 180 254 282 199 130 162 167 122 272 248 256 269 259 293 294 259 162 217 245 283 297 225 245 250 252 237 219 236 232 231 258 299 309 310 313 317 302 293 294 299 283 293 300 301 296 289 265 241 235 215 210 210 204 207 215 195 197 198 202 205 214 216 212 212 209 201 206 202 203 200 194 195 189 191 189 188 187 196 192
317 298 246 139 244 186 180 198 199 177 155 196 98 158 193 172 162 253 199 244 240 238 349 272 123 236 104 239 233 223 262 343 274 239 242 248 262 274 273 292 294 292 316 311 288 256 279 310 287 274 271 279 259 224 225 226 222 211 221 211 215 216 206 199 202 200 209 212 213 218 220 216 213 212 208 209 205 197 196 196 194 194 191 195 196 195
217 247 253 209 353 151 182 226 108 101 91 192 166 66 49 240 133 236 227 240 284 331 318 219 217 211 218 271 275 229 267 290 276 331 5 312 294 318 317 291 284 298 289 284 310 329 334 281 263 259 270 266 258 234 225 232 225 221 228 221 223 221 214 210 207 212 211 211 204 212 217 220 218 220 219 218 211 209 201 200 197 196 195 198 190 190
286 270 274 306 69 185 202 61 213 142 230 214 105 199 218 150 155 291 320 260 213 354 256 218 286 271 299 274 248 306 325 291 313 289 276 271 279 310 264 253 271 309 310 317 320 310 298 328 254 218 214 208 197 207 250 272 248 246 241 227 231 230 225 220 219 218 213 213 210 212 214 217 220 220 218 217 214 209 199 197 205 204 205 195 189 190
247 275 177 126 248 260 155 107 75 16 140 107 181 236 64 142 117 161 236 357 234 241 268 269 266 277 337 284 42 19 41 351 9 346 295 279 260 282 251 293 323 293 288 282 281 272 271 278 332 353 2 20 13 359 343 317 294 287 273 247 241 235 230 229 221 218 213 212 218 220 216 216 218 223 230 228 223 210 202 200 198 202 199 204 198 188
93 293 268 211 177 280 13 99 313 318 278 191 192 284 140 244 264 266 80 247 242 245 262 224 274 274 247 263 285 300 294 296 282 294 345 311 297 249 281 306 298 285 283 286 269 284 329 358 6 7 6 15 17 354 322 310 319 326 305 274 259 256 251 253 248 241 235 224 224 219 221 219 220 222 226 229 229 217 217 211 205 202 205 187 191 189
14 257 288 47 109 215 18 107 225 213 330 46 8 332 193 91 232 164 197 215 274 265 252 255 245 264 258 262 266 265 264 297 301 326 272 254 247 276 292 290 312 323 329 344 359 7 9 7 7 9 7 4 5 356 341 325 324 316 303 304 290 285 281 271 254 240 237 235 235 236 228 225 222 221 218 214 213 218 221 219 211 206 196 203 187 198
302 145 258 210 318 20 259 182 210 174 196 207 69 268 262 209 224 83 320 203 231 261 235 270 248 251 255 261 264 265 211 224 236 265 283 297 295 276 276 271 303 344 6 12 13 12 9 7 7 7 8 5 359 2 3 5 347 299 279 264 257 261 268 267 258 247 244 233 236 236 236 235 228 228 222 216 210 215 218 214 212 213 212 174 198 186
294 193 234 254 268 221 240 202 197 193 183 190 180 210 214 217 257 257 257 149 237 219 248 249 254 239 250 265 269 283 193 212 272 286 303 297 293 294 311 348 18 21 20 21 16 13 9 6 2 2 6 7 7 5 3 357 0 5 358 343 329 325 305 286 272 249 252 243 240 235 236 235 235 237 230 229 223 223 220 213 211 207 191 207 205 189
204 197 239 241 239 262 263 239 199 192 182 197 184 237 204 228 214 239 261 239 231 224 243 250 271 249 191 232 290 325 305 224 194 161 276 307 330 360 11 21 24 30 23 15 13 8 7 7 4 2 6 6 5 3 3 5 6 2 359 355 346 332 311 292 279 264 251 246 244 241 240 236 232 222 224 227 230 229 226 220 214 199 205 211 202 198
79 61 1 261 283 287 281 256 68 106 115 347 266 203 151 220 211 231 243 251 250 248 238 253 248 293 20 340 306 333 328 325 324 148 359 25 41 32 19 14 11 8 9 8 12 12 9 4 6 12 10 6 3 1 358 359 3 5 4 358 353 347 328 313 290 277 262 254 252 250 246 239 234 225 226 226 228 229 226 220 216 206 212 212 201 203
343 250 225 287 279 297 285 319 77 14 41 191 212 228 224 264 316 289 346 50 279 208 245 254 259 239 260 343 351 336 324 319 332 23 49 53 31 34 22 12 8 5 6 9 8 6 6 13 13 7 3 3 360 359 360 360 2 5 1 358 355 351 342 330 313 290 273 260 259 253 247 246 233 231 230 229 230 232 232 228 227 216 217 208 208 208
205 219 221 248 252 263 271 265 266 262 222 201 289 266 242 216 243 266 261 253 257 232 234 249 265 261 273 326 295 292 325 346 15 34 49 60 43 20 21 15 10 12 8 4 4 8 8 2 5 7 4 0 360 358 357 0 1 0 1 358 354 352 349 345 335 317 294 278 268 264 253 251 241 238 236 234 236 234 229 224 222 220 218 210 214 206
242 346 235 238 243 254 258 269 280 334 282 253 277 319 298 296 268 249 269 264 254 269 254 253 265 280 278 287 325 12 10 6 354 8 27 28 33 31 20 14 9 8 9 8 6 358 1 6 2 357 358 358 355 358 356 355 357 360 358 356 356 352 349 346 344 335 323 301 280 276 270 260 248 241 241 239 239 239 235 227 221 215 216 206 210 208
330 243 248 263 260 265 272 277 293 301 289 286 279 274 280 275 270 265 254 258 279 285 264 262 279 280 284 313 33 10 4 356 0 0 7 18 24 25 12 8 9 10 4 3 6 7 4 354 353 355 353 353 353 350 354 355 355 355 355 352 352 351 349 348 345 346 341 332 315 295 280 267 261 255 250 248 246 241 237 232 227 223 220 207 209 209
228 263 286 274 270 272 291 302 308 300 284 293 289 290 280 279 277 270 264 268 271 255 274 290 285 284 292 25 50 29 346 358 339 343 358 351 3 21 20 16 15 9 3 3 354 356 357 352 348 346 347 346 347 350 350 349 350 352 351 353 351 351 352 347 346 350 353 348 342 330 315 301 282 265 259 252 248 243 238 234 231 228 222 216 217 213
308 250 250 289 311 316 297 293 297 293 297 292 291 286 286 282 275 269 272 277 279 278 279 280 280 279 18 105 31 96 337 314 328 314 335 6 4 7 9 9 12 1 2 358 347 344 345 343 343 343 339 343 347 347 349 350 348 350 349 347 349 347 346 351 350 351 352 355 349 340 333 322 312 298 275 261 251 246 240 236 230 223 220 219 216 215
268 295 346 335 305 291 291 287 284 279 290 291 292 295 286 275 271 270 282 277 270 269 270 267 265 269 83 43 353 340 260 268 295 334 6 12 355 1 1 357 356 354 338 343 340 332 336 338 337 340 342 341 342 340 341 341 340 342 346 346 344 344 341 348 346 348 350 348 345 342 340 336 327 317 305 287 267 256 246 237 229 224 224 222 214 213
345 267 302 303 302 288 292 289 285 292 291 287 284 283 277 272 273 270 262 256 259 272 279 285 277 269 48 323 233 287 337 348 7 321 329 322 346 349 350 349 341 340 335 332 329 324 331 334 337 338 335 333 331 332 334 334 336 342 342 338 335 333 335 342 344 344 344 344 342 344 343 339 333 327 315 305 291 275 257 247 236 229 225 220 218 216
246 286 299 304 289 271 278 279 295 300 302 286 264 253 259 270 264 266 263 311 357 70 267 265 285 95 248 293 315 319 352 330 326 321 307 267 286 320 330 321 323 322 325 326 323 326 327 324 323 323 322 323 325 325 322 322 327 335 332 326 319 319 331 336 336 335 339 342 343 343 341 336 334 327 321 315 305 295 282 262 247 239 227 222 219 209
245 253 270 258 261 282 286 290 329 302 265 256 275 15 220 254 272 277 299 55 356 92 137 94 152 96 242 274 336 300 316 297 295 284 283 262 262 299 303 295 301 312 308 310 311 311 314 309 308 310 310 309 309 309 308 305 300 306 310 311 316 323 327 331 331 333 335 340 341 342 339 337 335 328 320 314 309 303 292 276 259 248 238 230 207 212
259 262 258 236 261 270 289 347 311 263 260 268 4 285 62 84 88 110 117 108 131 100 108 114 194 360 272 233 248 268 263 255 245 257 276 233 228 277 298 298 294 303 305 297 299 296 297 301 301 305 307 310 307 305 306 307 308 316 319 323 324 326 330 330 330 332 337 339 338 340 340 337 333 328 321 316 308 300 289 277 271 262 247 229 217 214
238 243 228 244 222 321 244 215 247 248 96 169 215 238 257 84 126 100 109 184 198 191 170 122 237 196 230 233 261 256 260 272 273 260 252 232 214 220 250 262 271 279 284 282 280 291 292 295 297 298 299 296 297 297 299 302 314 323 320 322 320 319 322 321 325 327 334 338 338 339 337 335 330 327 323 320 314 300 285 277 269 265 252 236 237 232
230 235 198 266 220 244 230 223 245 311 304 260 234 308 127 194 183 155 228 247 180 246 192 222 229 217 220 238 246 261 270 305 302 295 192 197 221 217 227 245 249 252 253 259 262 273 281 283 288 287 287 289 285 289 294 302 315 317 316 318 315 314 314 320 323 328 332 332 333 334 333 330 326 324 323 322 320 313 301 286 277 267 260 249 239 226
206 211 209 237 238 227 245 261 263 256 255 317 206 253 290 210 185 271 123 268 163 232 235 199 232 233 219 239 248 259 320 337 303 294 209 225 218 233 241 250 253 253 251 253 259 264 270 275 273 275 276 285 286 285 295 303 312 315 312 310 311 312 312 313 314 319 326 324 327 327 327 326 324 322 320 321 318 310 306 296 277 268 245 239 238 230
208 213 220 230 256 254 255 253 259 260 254 115 217 191 233 187 184 248 176 263 171 173 258 188 222 237 226 232 243 228 116 256 268 275 257 223 229 234 256 257 249 250 254 251 255 270 276 274 275 280 287 286 291 294 299 301 309 312 307 306 307 305 303 303 307 316 318 317 315 315 318 319 320 320 318 316 310 306 302 299 290 276 252 241 241 240
121 217 206 234 227 238 265 271 258 244 231 243 194 251 219 103 192 75 308 302 122 287 280 200 211 237 239 234 234 210 204 247 258 261 249 248 232 221 220 254 265 260 256 260 263 266 275 282 287 287 285 288 285 292 298 299 302 299 298 298 299 299 297 298 303 308 308 307 308 306 312 314 316 315 317 313 309 305 294 289 290 275 256 251 237 242
336 332 132 206 237 250 251 260 288 299 284 221 211 236 262 226 159 285 261 287 322 305 240 197 218 232 237 251 218 223 223 231 244 256 270 277 286 264 246 243 250 253 258 261 270 280 283 278 276 280 285 285 283 285 289 293 299 296 292 295 297 290 291 296 302 307 307 306 304 305 306 309 309 310 308 302 299 296 291 279 269 269 261 254 248 230
294 142 306 332 232 241 232 249 248 262 234 240 261 192 235 57 319 247 244 143 297 307 287 195 229 239 243 242 245 240 250 248 254 270 282 276 269 267 262 261 267 272 266 270 277 280 276 278 279 282 284 282 282 285 287 297 294 291 292 293 287 286 296 301 304 305 306 304 301 300 301 304 305 301 298 299 297 297 290 276 252 252 252 251 243 233
216 160 229 218 236 38 8 252 280 263 329 99 245 358 189 173 229 250 304 307 310 303 291 260 214 246 234 265 257 261 263 264 260 259 260 265 266 270 269 260 257 265 277 285 287 276 275 284 285 283 282 284 285 288 292 295 290 286 288 284 282 294 300 300 305 306 304 299 296 296 299 301 301 300 297 292 289 284 284 279 260 248 236 242 243 239
209 270 241 256 189 250 221 229 212 214 211 224 89 206 260 258 280 293 298 297 298 293 270 252 251 259 270 264 276 275 269 265 268 265 266 266 266 274 285 279 273 278 281 281 278 282 282 280 281 285 284 283 281 285 284 283 281 281 282 280 287 297 297 303 306 305 301 296 293 296 297 296 294 292 286 283 280 270 271 271 255 247 231 229 232 238
207 212 222 252 246 208 206 231 248 214 176 258 259 262 262 275 285 290 289 279 288 288 251 260 274 287 288 286 278 273 277 267 265 273 281 286 302 303 298 297 297 295 294 293 292 293 296 289 289 289 286 283 282 279 280 275 277 280 279 281 294 296 302 306 305 302 295 294 297 298 297 294 292 290 286 279 270 272 269 265 250 250 238 223 230 231
308 263 230 345 258 269 252 253 268 281 289 288 281 280 282 286 291 293 289 293 252 251 267 277 295 296 299 300 297 277 268 287 309 311 314 319 312 306 305 303 300 297 293 292 290 290 290 294 290 285 282 283 279 278 279 280 275 277 277 289 292 295 302 303 299 293 292 297 299 299 301 301 297 290 284 278 262 256 259 261 252 239 245 223 230 228
248 254 252 235 268 274 266 250 255 265 270 270 273 279 282 273 267 281 291 267 275 295 305 325 340 323 320 356 6 338 319 324 317 311 312 310 304 299 297 295 295 295 295 293 290 294 296 295 291 286 285 284 285 284 283 281 276 273 282 286 291 298 301 295 293 293 296 296 298 299 300 296 294 293 290 282 273 256 255 249 244 238 236 226 228 228
274 213 216 235 250 237 262 270 265 254 252 261 269 281 284 283 286 280 273 332 340 352 11 352 349 359 11 354 356 341 314 311 310 307 307 302 298 297 296 294 294 295 293 291 292 295 294 286 282 282 283 284 284 288 288 284 282 281 281 283 290 301 300 294 292 293 293 291 292 290 289 288 286 286 284 280 273 269 261 246 235 238 231 224 221 224
243 66 219 183 232 253 259 263 270 271 276 274 272 261 272 320 334 4 30 34 16 7 351 343 25 351 346 329 335 326 317 308 308 306 304 301 296 294 293 295 295 294 294 295 295 299 291 289 286 283 282 281 285 288 287 283 281 282 284 289 300 309 302 294 292 291 290 287 285 280 277 277 277 278 280 280 276 261 254 254 245 236 242 232 225 220
250 251 257 253 263 262 263 269 267 284 283 275 261 337 50 17 34 42 25 24 16 3 350 339 326 331 317 318 327 323 307 300 300 303 299 293 290 289 292 294 295 295 293 292 295 292 291 287 285 285 284 283 286 288 286 285 283 281 283 295 305 310 299 297 295 291 284 280 278 276 277 274 272 271 274 276 277 275 268 244 238 240 238 249 224 227
228 246 244 243 248 261 263 264 252 243 267 263 317 87 72 37 38 40 41 7 346 342 341 332 324 324 323 319 323 302 293 292 294 304 298 293 291 292 293 297 297 296 295 299 300 296 293 292 290 289 285 285 289 287 288 287 286 287 291 300 302 301 295 294 290 284 280 280 276 275 276 277 279 279 274 273 274 272 271 275 253 240 242 244 241 227